Погода Карасу

Погода Карасу : погода сейчас, прогноз погоды и архив. Всё, что Вы хотите узнать о погоде Карасу!

Поиск расширенной информации на нашем сайте:

Полезная информация: Аренда помещения в краснодаре под хостел недорого.

Другие новости

Новости СМИ2

Главная страница сайта

Новости сайта

02.10.2013

Напоминаем, что на нашем новом сайте вы можете получить высокодетализированные прогнозы погоды по пунктам России, СНГ и мира (включающие важные для авиации метеовеличины, такие как направление и скорость ветра, видимость, явления погоды, количество и форма облачности, нижняя и верхняя граница облачности), а также ознакомиться с разнообразными материалами по авиационной метеорологии и подборкой полезных ссылок на эту тему.

Сайт Метеоцентр.Азия посвящён разработке технологий оптимизации авиаметеорологического обслуживания, включая проектирование и перспективное создание нескольких автоматизированных авиаметеорологических систем:
- система выпуска высокодетальных прогностических карт явлений погоды для нижнего воздушного пространства по России и ближнему зарубежью;
- система верификации прогнозов TAF (выпускаемых синоптиками официальных АМСГ РФ и ближнего зарубежья) и AUTOTAF (выпускаемых сайтом Метеоцентр.Азия) - выявление ошибок, онлайн-сопоставление с фактической погодой METAR, автоматическое внесение коррективов в прогнозы при резком отклонении фактической погоды от прогноза, подсчёт оправдываемости прогнозов по элементам и в целом;
- система обработки, анализа и отображения авиаметеорологической информации для применения провайдерами метеорологической информации.

Рекомендуем: Самая подробная информация пояс верности силиконовый у нас.

Погода Карасу - сегодня

Время (UTC), дата Ветер
(°,м/с) 
Видим.   Явления Облачность Т
(°С)
Тd
(°С)
f(%) Тe
(°С)
Pmin
(гПа)
dP
(гПа)
Po
(мм)
O2
(г/м3)
Тmin Tmax R s Состояние
почвы
15 21.03.17 320 (СЗ) н/о    9/9 600 м 
[Sc]
+9.7 +4.3 69 +11  1012.3  2.4  685  266    +13.2       
18 21.03.17 090 (В) н/о    9/9 600 м 
[Sc]
+9.1 +4.6 73 +10  1012.6  0.2  685  266    +13.2       
21 21.03.17 140 (ЮВ) н/о  слаб. дождь  10/10 600 м 
[Frnb|Ns]
+8.3 +5.1 80 +9  1015.1  686  267           
00 22.03.17 180 (Ю) н/о  слаб. дождь  10/10 600 м 
[Frnb|Ns]
+8.3 +6.1 86 +9  1016.6  1.2  687  268           
03 22.03.17 тихо ()   4000 м  слаб. дождь  10/10 600 м 
[Frnb|Ns]
+7.1 +5.9 92 +7  1019.8  2.4  689  270         
06 22.03.17 тихо ()   4000 м  дождь  10/10 600 м 
[Frnb|Ns]
+8.7 +1.2 59 +9  1021.6  2.2  691  269  +7       
09 22.03.17 090 (В) 4000 м  дымка{дождь}  9/9 600 м 
[Sc]
+10.7 +8.6 87 +13  1020.8  0.1  691  266           
12 22.03.17 360 (С) 20000 м  {дождь}  9/9 600 м 
[Sc]
+13.3 +7.1 66 +15  1016.7  -2.9  689  263           
18 22.03.17 180 (Ю) н/о    9/9 600 м 
[Sc]
+8.1 +6.1 87 +9  1018.3  -0.5  689  268    +13.5  0.7     
21 22.03.17 тихо ()   н/о    6/6 600 м 
[Sc]
+7.2 +0.4 62 +7  1018.7  -0.1  689  270           
00 23.03.17 180 (Ю) н/о    8/8 600 м 
[Sc]
+6.1 +3.5 83 +7  1021.3  690  271           
03 23.03.17 200 (Ю) 4000 м  дымка  9/9 600 м 
[Sc]
+7.9 +6.1 88 +9  1024.2  3.4  693  270           
06 23.03.17 360 (С) 10 км  {дождь}  9/9 600 м 
[Sc]
+10.2 +7.7 84 +10  1025.5  1.9  694  268  +6         
09 23.03.17 090 (В) 10 км    9/9 600 м 
[Sc]
+14.6 -6.1 23 +15  1021.8  -1.2  693  265           
12 23.03.17 тихо ()   20000 м    4/4 600 м 
[Sc]
+16 +6.1 52 +16  1021.9  0.5  693  263           
18 23.03.17 180 (Ю) н/о    ясно 
+8 +4.1 76 +9  1023.5  -0.9  692  270    +16.6  0.0     
21 23.03.17 тихо ()   н/о    ясно 
+8 +3 71 +8  1022.5  -0.9  691  270           
00 24.03.17 тихо ()   н/о    8/3 600 м верхняя 
[Sc|Ci fib]
+6.4 +0.5 66 +6  1022.1  -1.1  691  272           
03 24.03.17 тихо ()   10 км    9/9 600 м 
[Sc]
+8.8 +4.5 74 +9  1020.3  -0.6  690  269           
06 24.03.17 280 (З) 20000 м    9/9 600 м 
[Sc]
+14.4 +2.1 43 +16  1017.4  -0.9  689  263  +6         
09 24.03.17 270 (З) 20000 м    9/3 600 м верхняя 
[Sc|Ci fib]
+16.8 +4 43 +18  1013.8  -2.4  688  260           
12 24.03.17 200 (Ю) 20000 м    9/9 600 м 
[Sc]
+15.6 +4.8 49 +17  1014.5  0.3  688  261           
15 24.03.17 180 (Ю) н/о    9/9 600 м 
[Sc]
+12.1 +6.4 68 +13  1017.3  1.4  689  265    +18       
18 24.03.17 тихо ()   н/о    9/9 600 м кучево-дожд. 
[Cb calv]
+9.7 +4.5 70 +10  1019.8  1.5  690  268    +18       
21 24.03.17 180 (Ю) н/о    8/8 600 м 
[Sc]
+7.9 +2.9 71 +8  1020.3  -0.3  690  270           
Время (UTC), дата Ветер
(°,м/с) 
Видим.   Явления Облачность Т
(°С)
Тd
(°С)
f(%) Тe
(°С)
Pmin
(гПа)
dP
(гПа)
Po
(мм)
O2
(г/м3)
Тmin Tmax R s Состояние
почвы

Для получения пояснительной информации подведите курсор к названию столбца.

ПОГОДА Карасу - архив

Всё, что Вы хотите узнать о погоде Карасу - удобно и подробно!

Выберите нужную дату (начиная с 1 января 2015* года) и нажмите кнопку "Найти".
Будут отображены архивные сводки погоды по пункту Карасу, начиная с указанной даты.


Отображать данные в формате CSV (для использования в таблицах Excel)


Внимание! Наш архив погоды предназначен исключительно для личного некоммерческого использования в познавательных целях. Если Вам необходимы официальные справки о состоянии погоды (для производственных, юридических, коммерческих и т.п. целей), обращайтесь в органы Росгидромета.

*Примечание: данная дата относится к архиву по метеостанциям СССР (Россия, СНГ, Балтия).
Архив по метеостанциям Зарубежной Европы и Азии (кроме Китая) хранится 10 дней, по другим регионам земного шара (Китай, Африка, Америка, Австралия, Океания) - 1 день.

Карасу - район местоположения метеостанции


Название, широта, долгота, высота метеостанции:
Карасу 40.7°ш. 72.9°д. 865 м над ур. моря [Кыргызстан]

Дополнительная информация

В oтличие oт бoльшинства пoгoдных сайтoв мы публикуем пoдрoбную метеoинфoрмацию в детальнoм прoфессиoнальнoм фoрмате.

Характеристики температуры и влажнoсти вoздуха измеряются на высoте 2 м в тени вдали oт зданий и деревьев.
Скoрoсть ветра измеряется на высoте 10 м (на урoвне рoста челoвека скoрoсть ветра ниже в 1.5-2 раза). Если метеoстанция нахoдится в гoрoде или в лесу, тo скoрoсть ветра занижена на 2-4 м/с пo сравнению с oткрытым местoм. Скoрoсть ветра над акватoриями крупных рек и oзёр, а также на вершинах хoлмoв на 2-5 м/с выше, чем в oбычных услoвиях.
Атмoсфернoе давление в разных тoчках местнoсти мoжет значительнo oтличаться oт давления на метеoстанции, в зависимoсти oт услoвий рельефа (при пoдъёме на 10 м давление пoнижается примернo на 1 мм рт.ст.).